Home   Weather   Anaheim   Past weeks

Flag for USA Past Weather in Anaheim, California, USA — Yesterday and Last 2 Weeks

Now
56 °F

Partly cloudy.


Feels Like: 55 °F
Forecast: 44 / 60 °F
Wind: 5 mph from Southwest

Location: Fullerton Municipal Airport

Current Time: Feb 27, 2017 at 7:07:34 pm

Latest Report: Feb 27, 2017 at 6:00 pm


Visibility: 10 mi

Pressure: 29.83 "Hg

Humidity: 90%

Dew Point: 53 °F

Location of AnaheimLocation

Past Weather in Anaheim — Graph

°F

Anaheim Temperature Yesterday

Maximum temperature yesterday: 57 °F (at 2:36 pm)
Minimum temperature yesterday: 49 °F (at 6:53 am)
Average temperature yesterday: 53 °F

High & Low Weather Summary for the Past Weeks

 TemperatureHumidityPressure
High82 °F (Feb 15, 1:53 pm)100% (Feb 15, 4:53 am)30.33 "Hg (Feb 15, 4:53 am)
Low40 °F (Feb 24, 4:53 am)20% (Feb 15, 12:53 pm)29.45 "Hg (Feb 17, 4:53 pm)
Average57 °F74%29.98 "Hg
* Reported Feb 12 5:53 pm — Feb 27 5:07 pm, Anaheim, Weather by CustomWeather, © 2017

Note: Actual official high and low records may vary slightly from our data, if they occured in-between our weather recording intervals... More about our weather records

Advertising

Anaheim Weather History for the Previous 24 Hours

Scroll right to see more
 ConditionsComfort  
Time TempWeatherWind HumidityBarometerVisibility
5:07 pm
Mon, Feb 27
57 °FMostly cloudy.6 mph90%29.83 "Hg10 mi
3:53 pm57 °FFog.3 mph90%29.82 "Hg5 mi
3:03 pm57 °FFog.No wind90%29.81 "Hg5 mi
2:18 pm56 °FLight rain. Fog.No wind93%29.83 "Hg4 mi
1:53 pm56 °FLight rain. Mostly cloudy.No wind90%29.84 "Hg8 mi
12:53 pm56 °FLight rain. Fog.No wind87%29.85 "Hg4 mi
11:53 am57 °FLight rain. Mostly cloudy.No wind81%29.88 "Hg6 mi
10:53 am58 °FMostly cloudy.3 mph75%29.90 "Hg10 mi
10:21 am57 °FMostly cloudy.5 mph74%29.89 "Hg10 mi
9:53 am57 °FMostly cloudy.5 mph69%29.89 "Hg10 mi
8:53 am55 °FMostly cloudy.9 mph67%29.89 "Hg10 mi
7:53 am54 °FMostly cloudy.7 mph69%29.88 "Hg10 mi
6:53 am53 °FOvercast.5 mph69%29.87 "Hg10 mi
6:37 am52 °FPartly sunny.3 mph72%29.87 "Hg10 mi
5:53 am53 °FMostly cloudy.7 mph69%29.88 "Hg10 mi
4:53 am53 °FOvercast.6 mph69%29.88 "Hg10 mi
3:53 am51 °FOvercast.6 mph77%29.89 "Hg10 mi
2:53 am50 °FPassing clouds.6 mph80%29.92 "Hg10 mi
1:53 am50 °FClear.6 mph80%29.94 "Hg10 mi
12:53 am51 °FOvercast.7 mph80%29.96 "Hg10 mi
11:53 pm
Sun, Feb 26
52 °FOvercast.5 mph77%29.97 "Hg10 mi
10:53 pm52 °FOvercast.3 mph80%29.97 "Hg10 mi
9:53 pm53 °FOvercast.3 mph77%29.97 "Hg10 mi
8:53 pm53 °FPassing clouds.5 mph74%29.97 "Hg10 mi
7:53 pm53 °FClear.3 mph74%29.97 "Hg10 mi
Weather by CustomWeather, © 2017

See weather overviewHow to use our weather pages